DW4212 Weather Reports


Display with metric or nautical units.
time (UTC)temp
F
wind
direction
speed
MPH
gust
MPH
rain 1hr
in
rain 24hr
in
rain mn
in
humidity
%
barometer
mb
20260831151929 88 185 2.0 9.0 0.00 0.00 0.00 23 1020.9
20260831150911 87 173 1.0 3.0 0.00 0.00 0.00 25 1020.9
20260831145912 87 172 2.0 9.0 0.00 0.00 0.00 23 1021.0
20260831144923 88 207 0.0 6.0 0.00 0.00 0.00 24 1021.0
20260831143911 87 198 2.0 7.0 0.00 0.00 0.00 25 1021.1
20260831142912 86 65 0.0 0.0 0.00 0.00 0.00 27 1021.1
20260831141918 87 63 0.0 4.0 0.00 0.00 0.00 26 1021.1
20260831140925 87 195 1.0 7.0 0.00 0.00 0.00 26 1021.3
20260831135924 86 177 0.0 5.0 0.00 0.00 0.00 26 1021.4
20260831134916 87 183 0.0 4.0 0.00 0.00 0.00 25 1021.6
20260831133921 87 183 0.0 8.0 0.00 0.00 0.00 25 1021.6
20260831132922 86 180 1.0 6.0 0.00 0.00 0.00 26 1021.7
20260831131927 86 179 2.0 7.0 0.00 0.00 0.00 27 1021.7
20260831130913 85 178 0.0 5.0 0.00 0.00 0.00 28 1021.8
20260831125918 84 178 1.0 5.0 0.00 0.00 0.00 29 1021.9
20260831124926 84 178 0.0 8.0 0.00 0.00 0.00 29 1021.9
20260831123912 84 177 0.0 6.0 0.00 0.00 0.00 30 1022.0
20260831122931 84 178 2.0 6.0 0.00 0.00 0.00 30 1022.1
20260831121918 85 178 0.0 7.0 0.00 0.00 0.00 29 1022.2
20260831120925 84 175 0.0 5.0 0.00 0.00 0.00 29 1022.4
20260831115927 83 173 0.0 9.0 0.00 0.00 0.00 30 1022.4
20260831114912 83 178 0.0 6.0 0.00 0.00 0.00 30 1022.5
20260831113917 83 180 1.0 5.0 0.00 0.00 0.00 31 1022.6
20260831112912 82 180 2.0 9.0 0.00 0.00 0.00 32 1022.6
20260831111920 81 191 2.0 8.0 0.00 0.00 0.00 33 1022.6
20260831110929 83 197 0.0 5.0 0.00 0.00 0.00 32 1022.7
20260831105930 83 188 0.0 6.0 0.00 0.00 0.00 32 1022.7
20260831104918 82 190 0.0 7.0 0.00 0.00 0.00 33 1022.8
20260831103926 81 160 0.0 8.0 0.00 0.00 0.00 33 1022.8
20260831102924 81 158 0.0 8.0 0.00 0.00 0.00 34 1022.8
20260831101913 79 148 0.0 5.0 0.00 0.00 0.00 35 1022.8
20260831100921 81 182 0.0 3.0 0.00 0.00 0.00 34 1022.8
20260831095927 80 182 0.0 5.0 0.00 0.00 0.00 35 1022.8
20260831094914 79 182 0.0 6.0 0.00 0.00 0.00 36 1022.7
20260831094009 79 173 1.0 8.0 0.00 0.00 0.00 37 1022.7
20260831092926 78 110 0.0 4.0 0.00 0.00 0.00 37 1022.7
20260831091912 77 29 0.0 0.0 0.00 0.00 0.00 38 1022.7
20260831090920 76 26 0.0 0.0 0.00 0.00 0.00 39 1022.8
20260831085920 75 26 0.0 0.0 0.00 0.00 0.00 41 1022.7
20260831084925 74 26 0.0 0.0 0.00 0.00 0.00 43 1022.7
20260831083915 73 26 0.0 0.0 0.00 0.00 0.00 44 1022.6
20260831082917 72 26 0.0 0.0 0.00 0.00 0.00 46 1022.6
20260831081926 0 0.0 0.0 0.00 0.00 0.00 1022.6
20260831080913 0 0.0 0.0 0.00 0.00 0.00 1022.6
20260831075913 0 0.0 0.0 0.00 0.00 0.00 1022.6
20260831074925 0 0.0 0.0 0.00 0.00 0.00 1022.6
20260831073914 0 0.0 0.0 0.00 0.00 0.00 1022.6
20260831072916 0 0.0 0.0 0.00 0.00 0.00 1022.7
20260831071924 0 0.0 0.0 0.00 0.00 0.00 1022.6
20260831070921 0 0.0 0.0 0.00 0.00 0.00 1022.6
20260831070001 0 0.0 0.0 0.00 0.00 0.00 1022.6
20260831064924 0 0.0 0.0 0.00 0.00 0.00 1022.5
20260831063913 0 0.0 0.0 0.00 0.00 0.00 1022.5
20260831062914 0 0.0 0.0 0.00 0.00 0.00 1022.5
20260831061922 0 0.0 0.0 0.00 0.00 0.00 1022.4
20260831055925 0 0.0 0.0 0.00 0.00 0.00 1022.4
20260831054912 0 0.0 0.0 0.00 0.00 0.00 1022.4
20260831053920 0 0.0 0.0 0.00 0.00 0.00 1022.3
20260831052921 0 0.0 0.0 0.00 0.00 0.00 1022.2
20260831051912 0 0.0 0.0 0.00 0.00 0.00 1022.1
20260831050921 0 0.0 0.0 0.00 0.00 0.00 1022.1
20260831045929 0 0.0 0.0 0.00 0.00 0.00 1022.1
20260831044918 0 0.0 0.0 0.00 0.00 0.00 1022.0
20260831043911 0 0.0 0.0 0.00 0.00 0.00 1022.0
20260831042927 0 0.0 0.0 0.00 0.00 0.00 1022.0
20260831041917 0 0.0 0.0 0.00 0.00 0.00 1022.0
20260831040926 0 0.0 0.0 0.00 0.00 0.00 1022.0
20260831035930 0 0.0 0.0 0.00 0.00 0.00 1022.0
20260831034919 0 0.0 0.0 0.00 0.00 0.00 1022.0
20260831033928 0 0.0 0.0 0.00 0.00 0.00 1022.0
20260831032929 0 0.0 0.0 0.00 0.00 0.00 1022.0
20260831030917 0 0.0 0.0 0.00 0.00 0.00 1021.9
20260831025928 0 0.0 0.0 0.00 0.00 0.00 1021.9
20260831024917 0 0.0 0.0 0.00 0.00 0.00 1021.8
20260831023926 0 0.0 0.0 0.00 0.00 0.00 1021.9
20260831022947 0 0.0 0.0 0.00 0.00 0.00 1021.8
20260831021930 0 0.0 0.0 0.00 0.00 0.00 1021.8
20260831020919 0 0.0 0.0 0.00 0.00 0.00 1021.8
20260831015922 0 0.0 0.0 0.00 0.00 0.00 1021.8
20260831014930 0 0.0 0.0 0.00 0.00 0.00 1021.8
20260831013921 0 0.0 0.0 0.00 0.00 0.00 1021.8
20260831012922 0 0.0 0.0 0.00 0.00 0.00 1021.8
20260831011922 0 0.0 0.0 0.00 0.00 0.00 1021.8
20260831010911 0 0.0 0.0 0.00 0.00 0.00 1021.8
20260831005940 66 24 1.0 5.0 0.00 0.00 0.00 52 1021.9
20260831004949 66 24 1.0 5.0 0.00 0.00 0.00 52 1021.9
20260831003935 66 27 2.0 4.0 0.00 0.00 0.00 52 1021.9
20260831002937 66 30 1.0 5.0 0.00 0.00 0.00 52 1021.8
20260831002012 67 30 0.0 4.0 0.00 0.00 0.00 52 1021.8
20260831000947 67 31 0.0 6.0 0.00 0.00 0.00 52 1021.8
20260830235948 67 34 1.0 4.0 0.00 0.00 0.00 52 1021.8
20260830234935 67 34 1.0 5.0 0.00 0.00 0.00 51 1021.9
20260830233945 67 40 1.0 5.0 0.00 0.00 0.00 51 1021.9
20260830232949 68 28 1.0 6.0 0.00 0.00 0.00 51 1021.8
20260830231937 68 37 2.0 6.0 0.00 0.00 0.00 51 1021.8
20260830225944 68 36 1.0 5.0 0.00 0.00 0.00 52 1021.7
20260830224948 69 30 1.0 6.0 0.00 0.00 0.00 52 1021.7
20260830223937 69 26 0.0 5.0 0.00 0.00 0.00 52 1021.7
20260830222940 69 28 1.0 6.0 0.00 0.00 0.00 52 1021.6
20260830221947 69 31 1.0 5.0 0.00 0.00 0.00 52 1021.6
20260830220934 69 34 0.0 4.0 0.00 0.00 0.00 52 1021.5
20260830215936 69 37 0.0 3.0 0.00 0.00 0.00 52 1021.5
20260830214943 70 38 0.0 4.0 0.00 0.00 0.00 51 1021.5
20260830213933 70 42 0.0 5.0 0.00 0.00 0.00 51 1021.5
20260830212935 70 31 0.0 5.0 0.00 0.00 0.00 50 1021.5
20260830211943 71 28 0.0 4.0 0.00 0.00 0.00 50 1021.5
20260830210931 71 28 0.0 3.0 0.00 0.00 0.00 50 1021.5
20260830205027 72 35 0.0 4.0 0.00 0.00 0.00 48 1021.3
20260830203950 72 355 0.0 4.0 0.00 0.00 0.00 48 1021.4
20260830202949 72 355 0.0 5.0 0.00 0.00 0.00 49 1021.3
20260830201935 72 21 0.0 6.0 0.00 0.00 0.00 49 1021.1
20260830200942 73 360 1.0 5.0 0.00 0.00 0.00 48 1021.1
20260830195944 73 38 0.0 2.0 0.00 0.00 0.00 48 1020.8
20260830194937 73 5 0.0 5.0 0.00 0.00 0.00 48 1020.8
20260830193945 74 49 1.0 8.0 0.00 0.00 0.00 47 1020.6
20260830192947 75 22 0.0 0.0 0.00 0.00 0.00 46 1020.4
20260830191914 76 22 0.0 3.0 0.00 0.00 0.00 45 1020.3
20260830190924 76 21 0.0 4.0 0.00 0.00 0.00 44 1020.2
20260830185930 77 32 0.0 5.0 0.00 0.00 0.00 43 1020.0
20260830184916 79 337 1.0 5.0 0.00 0.00 0.00 42 1019.9
20260830183925 79 340 0.0 3.0 0.00 0.00 0.00 41 1019.8
20260830182926 80 140 0.0 0.0 0.00 0.00 0.00 39 1019.7
20260830181919 82 176 0.0 0.0 0.00 0.00 0.00 36 1019.7
20260830180926 83 176 0.0 1.0 0.00 0.00 0.00 30 1019.7
20260830175928 84 176 0.0 6.0 0.00 0.00 0.00 29 1019.7
20260830174916 84 161 0.0 3.0 0.00 0.00 0.00 29 1019.6
20260830173929 84 199 0.0 6.0 0.00 0.00 0.00 30 1019.6
20260830172930 85 296 0.0 1.0 0.00 0.00 0.00 29 1019.5
20260830171918 86 296 0.0 2.0 0.00 0.00 0.00 28 1019.4
20260830170911 86 297 1.0 8.0 0.00 0.00 0.00 28 1019.4
20260830164926 87 191 0.0 4.0 0.00 0.00 0.00 29 1019.3
20260830163915 87 271 0.0 7.0 0.00 0.00 0.00 29 1019.3
20260830161916 86 238 2.0 9.0 0.00 0.00 0.00 30 1019.2
20260830160925 87 190 2.0 9.0 0.00 0.00 0.00 29 1019.2
20260830155925 87 205 0.0 8.0 0.00 0.00 0.00 29 1019.3
20260830154919 86 262 2.0 10.0 0.00 0.00 0.00 30 1019.4
20260830153929 85 178 1.0 7.0 0.00 0.00 0.00 31 1019.3
20260830152929 86 190 2.0 7.0 0.00 0.00 0.00 29 1019.3